Weather History for Muncie, IN

Change the Weather History Date:

Sunday, March 30, 2014

  Actual Average Record
Temperature  
Mean Temperature 38 °F 45 °F  
Max Temperature 52 °F 55 °F 80 °F (1986)
Min Temperature 24 °F 35 °F 18 °F (1969)
Degree Days  
Heating Degree Days 27 20  
Month to date heating degree days 936 767  
Since 1 July heating degree days 5846 5150  
Cooling Degree Days 0 0  
Month to date cooling degree days 0 0  
Year to date cooling degree days 0 0  
Moisture  
Dew Point 27 °F    
Average Humidity 65    
Maximum Humidity 92    
Minimum Humidity 38    
Precipitation  
Precipitation 0.00 in 0.11 in 0.68 in (1974)
Month to date precipitation 1.53 2.84  
Year to date precipitation 4.49 7.38  
Sea Level Pressure  
Sea Level Pressure 30.19 in    
Wind  
Wind Speed 6 mph (NW)    
Max Wind Speed 13 mph    
Max Gust Speed 17 mph    
Visibility 9 miles    
Events      
T = Trace of Precipitation, MM = Missing Value Source: NWS Daily Summary

Daily Weather History Graph

Daily Weather History Graph

Search for Another Location

Airport:

Trip Planner

Search our weather history database for the weather conditions in past years. The results will help you decide how hot, cold, wet, or windy it might be!

Date:

Astronomy

Mar. 30, 2014 Rise Set
Actual Time 7:28 AM EDT 8:03 PM EDT
Civil Twilight 7:01 AM EDT 8:31 PM EDT
Nautical Twilight 6:29 AM EDT 9:03 PM EDT
Astronomical Twilight 5:55 AM EDT 9:36 PM EDT
Moon 7:13 AM EDT (3/30) 8:15 PM EDT (3/30)
Length of Visible Light 13h 30m
Length of Day
12h 35m
Waning Crescent, 0% of the Moon is Illuminated
Mar 30
Waning Crescent
Mar 30
New
Apr 7
First Quarter
Apr 15
Full
Apr 22
Last Quarter

Hourly Weather History & Observations

Time (EDT) Temp. Windchill Dew Point Humidity Pressure Visibility Wind Dir Wind Speed Gust Speed Precip Events Conditions
12:53 AM 30.9 °F 22.8 °F 27.0 °F 85% 30.18 in 9.0 mi NNW 9.2 mph - N/A   Clear
1:53 AM 30.0 °F 21.7 °F 27.0 °F 88% 30.19 in 7.0 mi NW 9.2 mph - N/A   Clear
2:53 AM 30.0 °F 20.5 °F 27.0 °F 88% 30.19 in 6.0 mi NW 11.5 mph - N/A   Clear
3:53 AM 28.9 °F 19.8 °F 27.0 °F 92% 30.19 in 6.0 mi NW 10.4 mph - N/A   Clear
4:53 AM 28.0 °F 20.0 °F 26.1 °F 92% 30.19 in 6.0 mi NW 8.1 mph - N/A   Clear
5:53 AM 27.0 °F 18.0 °F 25.0 °F 92% 30.20 in 7.0 mi NW 9.2 mph - N/A   Clear
6:53 AM 26.1 °F 19.4 °F 24.1 °F 92% 30.22 in 7.0 mi NNW 5.8 mph - N/A   Clear
7:53 AM 25.0 °F 20.7 °F 23.0 °F 92% 30.23 in 7.0 mi NNW 3.5 mph - N/A   Clear
8:53 AM 28.9 °F 21.1 °F 25.0 °F 85% 30.24 in 8.0 mi North 8.1 mph - N/A   Clear
9:53 AM 32.0 °F 24.8 °F 25.0 °F 75% 30.23 in 9.0 mi NE 8.1 mph - N/A   Clear
10:53 AM 34.0 °F 26.6 °F 25.0 °F 70% 30.26 in 10.0 mi NNW 9.2 mph - N/A   Clear
11:53 AM 37.9 °F 32.7 °F 23.0 °F 55% 30.25 in 10.0 mi NNW 6.9 mph - N/A   Clear
12:53 PM 42.1 °F 40.2 °F 25.0 °F 51% 30.23 in 10.0 mi NNW 3.5 mph - N/A   Clear
1:53 PM 45.0 °F 42.6 °F 25.0 °F 46% 30.22 in 10.0 mi Variable 4.6 mph - N/A   Clear
2:53 PM 48.0 °F - 26.1 °F 42% 30.19 in 10.0 mi NNW 6.9 mph - N/A   Clear
3:53 PM 50.0 °F - 28.0 °F 43% 30.17 in 10.0 mi NW 6.9 mph - N/A   Clear
4:53 PM 51.1 °F - 27.0 °F 39% 30.15 in 10.0 mi West 6.9 mph - N/A   Clear
5:53 PM 51.1 °F - 30.0 °F 44% 30.14 in 10.0 mi WNW 8.1 mph - N/A   Clear
6:53 PM 51.1 °F - 30.9 °F 46% 30.15 in 10.0 mi NW 5.8 mph - N/A   Clear
7:53 PM 48.9 °F - 28.9 °F 46% 30.15 in 10.0 mi West 3.5 mph - N/A   Clear
8:53 PM 44.1 °F - 30.0 °F 58% 30.15 in 10.0 mi Calm Calm - N/A   Clear
9:53 PM 37.9 °F - 30.9 °F 76% 30.16 in 10.0 mi Calm Calm - N/A   Clear
10:53 PM 37.0 °F 33.3 °F 30.0 °F 76% 30.14 in 10.0 mi SE 4.6 mph - N/A   Clear
11:53 PM 37.0 °F 34.5 °F 30.0 °F 76% 30.16 in 10.0 mi SSW 3.5 mph - N/A   Clear